GW0308 Weather Reports


Display with metric or nautical units.
time (UTC)temp
F
wind
direction
speed
MPH
gust
MPH
rain 1hr
in
rain 24hr
in
rain mn
in
humidity
%
barometer
mb
20260505102025 44 261 1.0 8.0 0.00 0.00 0.00 56 1006.3
20260505101504 44 258 0.0 4.0 0.00 0.00 0.00 56 1006.3
20260505101004 44 260 0.0 4.0 0.00 0.00 0.00 55 1006.3
20260505100504 44 260 0.0 4.0 0.00 0.00 0.00 55 1006.3
20260505100005 45 261 1.0 5.0 0.00 0.00 0.00 54 1006.2
20260505095504 45 264 1.0 5.0 0.00 0.00 0.00 53 1006.2
20260505095004 45 277 1.0 5.0 0.00 0.00 0.00 53 1006.3
20260505094504 45 275 1.0 5.0 0.00 0.00 0.00 52 1006.3
20260505094004 45 273 1.0 6.0 0.00 0.00 0.00 53 1006.3
20260505093504 46 263 1.0 7.0 0.00 0.00 0.00 52 1006.3
20260505093004 46 256 2.0 7.0 0.00 0.00 0.00 53 1006.3
20260505092504 45 262 2.0 5.0 0.00 0.00 0.00 54 1006.3
20260505092004 45 259 1.0 7.0 0.00 0.00 0.00 55 1006.3
20260505091504 45 247 1.0 7.0 0.00 0.00 0.00 55 1006.3
20260505091004 45 277 2.0 6.0 0.00 0.00 0.00 55 1006.2
20260505090525 45 285 2.0 6.0 0.00 0.00 0.00 55 1006.1
20260505090005 45 296 1.0 6.0 0.00 0.00 0.00 55 1006.1
20260505085504 45 322 0.0 2.0 0.00 0.00 0.00 55 1006.0
20260505085004 45 324 0.0 4.0 0.00 0.00 0.00 54 1006.0
20260505084504 45 325 0.0 4.0 0.00 0.00 0.00 54 1005.8
20260505083504 46 324 1.0 4.0 0.00 0.00 0.00 53 1005.4
20260505083007 46 330 1.0 4.0 0.00 0.00 0.00 53 1005.3
20260505082504 46 11 1.0 5.0 0.00 0.00 0.00 53 1005.2
20260505082004 46 13 1.0 5.0 0.00 0.00 0.00 53 1004.9
20260505081504 46 346 1.0 5.0 0.00 0.00 0.00 52 1004.8
20260505081004 46 337 1.0 5.0 0.00 0.00 0.00 52 1004.7
20260505080504 46 313 1.0 5.0 0.00 0.00 0.00 52 1004.6
20260505080025 46 307 1.0 5.0 0.00 0.00 0.00 51 1004.5
20260505075504 47 327 1.0 5.0 0.00 0.00 0.00 51 1004.5
20260505075004 47 336 2.0 8.0 0.00 0.00 0.00 50 1004.4
20260505074526 47 331 2.0 8.0 0.00 0.00 0.00 50 1004.4
20260505074004 47 331 2.0 7.0 0.00 0.00 0.00 49 1004.4
20260505073504 47 349 2.0 7.0 0.00 0.00 0.00 49 1004.5
20260505073004 47 354 2.0 7.0 0.00 0.00 0.00 49 1004.5
20260505072525 47 356 2.0 7.0 0.00 0.00 0.00 49 1004.5
20260505072004 48 344 2.0 8.0 0.00 0.00 0.00 49 1004.5
20260505071504 48 343 3.0 8.0 0.00 0.00 0.00 48 1004.5
20260505071004 48 353 4.0 8.0 0.00 0.00 0.00 48 1004.5
20260505070504 48 346 4.0 10.0 0.00 0.00 0.00 49 1004.4
20260505070007 48 349 3.0 10.0 0.00 0.00 0.00 49 1004.2
20260505065504 49 1 2.0 9.0 0.00 0.00 0.00 49 1004.2
20260505065004 49 353 3.0 12.0 0.00 0.00 0.00 49 1004.1
20260505064504 49 343 4.0 12.0 0.00 0.00 0.00 48 1004.0
20260505064004 49 359 4.0 12.0 0.00 0.00 0.00 48 1004.0
20260505063504 49 5 5.0 15.0 0.00 0.00 0.00 47 1003.9
20260505063004 50 357 4.0 15.0 0.00 0.00 0.00 47 1004.0
20260505062504 50 359 4.0 14.0 0.00 0.00 0.00 47 1004.0
20260505062004 50 348 4.0 14.0 0.00 0.00 0.00 47 1004.0
20260505061504 50 329 5.0 14.0 0.00 0.00 0.00 48 1004.0
20260505061004 51 330 4.0 14.0 0.00 0.00 0.00 49 1003.9
20260505060504 51 340 4.0 13.0 0.00 0.00 0.00 49 1003.9
20260505060005 51 335 4.0 13.0 0.00 0.00 0.00 48 1003.8
20260505055525 52 343 3.0 13.0 0.00 0.00 0.00 48 1003.7
20260505055005 52 314 3.0 12.0 0.00 0.00 0.00 49 1003.7
20260505054504 52 284 4.0 12.0 0.00 0.00 0.00 48 1003.6
20260505054025 52 273 5.0 12.0 0.00 0.00 0.00 47 1003.5
20260505053505 53 274 5.0 13.0 0.00 0.00 0.00 47 1003.4
20260505053004 53 278 6.0 14.0 0.00 0.00 0.00 46 1003.3
20260505052504 53 282 6.0 14.0 0.00 0.00 0.00 46 1003.2
20260505052004 53 280 6.0 13.0 0.00 0.00 0.00 46 1003.0
20260505051508 53 282 6.0 19.0 0.00 0.00 0.00 46 1002.9
20260505051004 54 284 6.0 19.0 0.00 0.00 0.00 46 1002.8
20260505050507 54 282 4.0 15.0 0.00 0.00 0.00 46 1002.7
20260505041504 56 280 5.0 14.0 0.00 0.00 0.00 47 1001.7
20260505041004 56 284 6.0 14.0 0.00 0.00 0.00 46 1001.7
20260505040504 56 279 6.0 14.0 0.00 0.00 0.00 46 1001.7
20260505040005 57 273 7.0 14.0 0.00 0.00 0.00 45 1001.6
20260505035504 57 266 6.0 14.0 0.00 0.00 0.00 44 1001.8
20260505035007 57 260 5.0 13.0 0.00 0.00 0.00 44 1001.6
20260505034504 57 254 5.0 13.0 0.00 0.00 0.00 43 1001.4
20260505034004 58 252 5.0 13.0 0.00 0.00 0.00 42 1001.3
20260505033507 58 251 5.0 10.0 0.00 0.00 0.00 42 1001.2
20260505033004 58 260 6.0 13.0 0.00 0.00 0.00 42 1001.0
20260505032504 58 265 6.0 13.0 0.00 0.00 0.00 41 1001.0
20260505032004 58 260 5.0 12.0 0.00 0.00 0.00 41 1000.9
20260505031525 58 259 5.0 11.0 0.00 0.00 0.00 40 1000.8
20260505031011 58 265 5.0 11.0 0.00 0.00 0.00 39 1000.9
20260505030525 58 266 5.0 10.0 0.00 0.00 0.00 39 1000.8
20260505030004 59 266 5.0 13.0 0.00 0.00 0.00 38 1000.6
20260505025504 59 267 6.0 14.0 0.00 0.00 0.00 37 1000.6
20260505025025 59 264 6.0 18.0 0.00 0.00 0.00 37 1000.4
20260505024504 60 272 6.0 18.0 0.00 0.00 0.00 35 1000.2
20260505024025 60 277 5.0 12.0 0.00 0.00 0.00 35 1000.1
20260505023525 60 270 4.0 9.0 0.00 0.00 0.00 36 999.9
20260505023004 60 281 4.0 14.0 0.00 0.00 0.00 36 999.5
20260505022504 60 289 4.0 14.0 0.00 0.00 0.00 36 999.1
20260505022004 60 285 5.0 11.0 0.00 0.00 0.00 38 999.2
20260505021525 61 279 5.0 11.0 0.00 0.00 0.00 39 999.1
20260505021025 61 273 4.0 11.0 0.00 0.00 0.00 40 999.2
20260505020504 61 280 4.0 13.0 0.00 0.00 0.00 42 999.0
20260505020004 61 275 4.0 13.0 0.00 0.00 0.00 43 998.8
20260505015504 61 263 5.0 10.0 0.00 0.00 0.00 43 998.7
20260505015025 62 266 6.0 12.0 0.00 0.00 0.00 42 998.8
20260505014504 62 268 5.0 12.0 0.00 0.00 0.00 41 998.6
20260505014004 62 263 5.0 12.0 0.00 0.00 0.00 41 998.5
20260505013504 62 261 5.0 10.0 0.00 0.00 0.00 41 998.5
20260505013025 62 260 5.0 11.0 0.00 0.00 0.00 40 998.5
20260505012525 63 256 5.0 12.0 0.00 0.00 0.00 40 998.6
20260505012004 63 254 6.0 12.0 0.00 0.00 0.00 39 998.4
20260505011504 64 263 6.0 15.0 0.00 0.00 0.00 38 998.2
20260505011004 64 267 5.0 15.0 0.00 0.00 0.00 38 998.1
20260505010504 64 263 4.0 12.0 0.00 0.00 0.00 37 997.8
20260505010025 64 278 5.0 12.0 0.00 0.00 0.00 37 997.6
20260505005504 65 278 6.0 13.0 0.00 0.00 0.00 37 997.6
20260505005004 65 272 6.0 15.0 0.00 0.00 0.00 36 997.5
20260505004504 66 270 6.0 15.0 0.00 0.00 0.00 36 997.4
20260505004004 66 267 7.0 14.0 0.00 0.00 0.00 37 997.3
20260505003504 67 269 6.0 15.0 0.00 0.00 0.00 36 997.3
20260505003004 67 272 6.0 15.0 0.00 0.00 0.00 37 997.3
20260505002504 68 272 6.0 13.0 0.00 0.00 0.00 36 997.1
20260505002004 68 273 6.0 16.0 0.00 0.00 0.00 36 997.1
20260505001504 68 269 6.0 16.0 0.00 0.00 0.00 35 997.1
20260505001004 68 274 6.0 15.0 0.00 0.00 0.00 35 997.0
20260505000504 69 282 5.0 13.0 0.00 0.00 0.00 35 996.9
20260505000006 69 279 5.0 12.0 0.00 0.00 0.00 35 996.8
20260504235525 69 278 4.0 12.0 0.00 0.00 0.00 34 996.7
20260504235004 70 280 4.0 12.0 0.00 0.00 0.00 33 996.6
20260504234504 71 277 5.0 15.0 0.00 0.00 0.00 32 996.5
20260504234004 72 280 6.0 16.0 0.00 0.00 0.00 33 996.4
20260504233504 72 270 7.0 16.0 0.00 0.00 0.00 35 996.4
20260504233005 73 274 8.0 19.0 0.00 0.00 0.00 35 996.3
20260504232504 73 281 9.0 19.0 0.00 0.00 0.00 35 996.2
20260504232004 73 271 8.0 20.0 0.00 0.00 0.00 35 996.1
20260504231504 73 274 8.0 20.0 0.00 0.00 0.00 36 996.2
20260504231004 74 281 9.0 19.0 0.00 0.00 0.00 36 996.2
20260504230507 74 270 8.0 20.0 0.00 0.00 0.00 36 996.0
20260504230005 74 259 8.0 20.0 0.00 0.00 0.00 36 996.1
20260504225504 74 269 8.0 21.0 0.00 0.00 0.00 36 996.1
20260504225004 74 272 8.0 21.0 0.00 0.00 0.00 36 996.0
20260504224504 74 270 8.0 19.0 0.00 0.00 0.00 37 996.0
20260504224004 74 279 8.0 19.0 0.00 0.00 0.00 37 995.9
20260504223507 75 287 7.0 18.0 0.00 0.00 0.00 36 995.8
20260504223004 76 278 7.0 16.0 0.00 0.00 0.00 36 995.8
20260504222504 76 268 6.0 15.0 0.00 0.00 0.00 35 995.6
20260504222025 76 255 6.0 14.0 0.00 0.00 0.00 33 995.5
20260504221526 76 246 5.0 14.0 0.00 0.00 0.00 32 995.3
20260504221004 77 231 4.0 12.0 0.00 0.00 0.00 33 995.2
20260504220525 77 212 5.0 12.0 0.00 0.00 0.00 34 995.3
20260504220004 77 221 6.0 14.0 0.00 0.00 0.00 33 995.3
20260504215504 77 229 7.0 18.0 0.00 0.00 0.00 31 995.3
20260504215008 78 226 7.0 18.0 0.00 0.00 0.00 30 995.3
20260504214504 77 219 7.0 12.0 0.00 0.00 0.00 31 995.3
20260504214004 77 216 6.0 15.0 0.00 0.00 0.00 30 995.2
20260504213505 77 222 6.0 15.0 0.00 0.00 0.00 31 995.2
20260504213004 78 226 6.0 15.0 0.00 0.00 0.00 31 995.3
20260504212504 78 212 6.0 12.0 0.00 0.00 0.00 31 995.4
20260504212004 78 205 7.0 13.0 0.00 0.00 0.00 31 995.3
20260504211525 78 207 6.0 13.0 0.00 0.00 0.00 30 995.3
20260504211025 77 221 6.0 16.0 0.00 0.00 0.00 32 995.4
20260504210525 77 215 7.0 16.0 0.00 0.00 0.00 32 995.5
20260504210011 77 215 7.0 16.0 0.00 0.00 0.00 32 995.6
20260504205504 77 226 7.0 18.0 0.00 0.00 0.00 33 995.7
20260504205004 76 217 8.0 18.0 0.00 0.00 0.00 32 995.7
20260504204504 77 215 8.0 16.0 0.00 0.00 0.00 31 995.8
20260504204004 77 219 7.0 15.0 0.00 0.00 0.00 32 995.8
20260504203505 77 209 7.0 19.0 0.00 0.00 0.00 34 995.7
20260504203025 77 206 8.0 19.0 0.00 0.00 0.00 33 995.8
20260504202504 78 223 7.0 20.0 0.00 0.00 0.00 32 995.9
20260504202004 77 215 7.0 20.0 0.00 0.00 0.00 32 996.0
20260504201504 77 214 7.0 19.0 0.00 0.00 0.00 32 996.0
20260504201004 77 229 7.0 16.0 0.00 0.00 0.00 33 996.0
20260504200525 77 225 7.0 18.0 0.00 0.00 0.00 36 996.1
20260504200025 76 218 7.0 18.0 0.00 0.00 0.00 32 996.2
20260504195525 76 214 7.0 18.0 0.00 0.00 0.00 34 996.1
20260504195011 76 217 8.0 16.0 0.00 0.00 0.00 34 996.2
20260504194504 76 221 7.0 16.0 0.00 0.00 0.00 33 996.5
20260504194004 76 219 6.0 13.0 0.00 0.00 0.00 34 996.4
20260504193525 76 211 5.0 14.0 0.00 0.00 0.00 34 996.4
20260504193004 76 207 7.0 16.0 0.00 0.00 0.00 34 996.3
20260504192504 76 203 8.0 16.0 0.00 0.00 0.00 34 996.4
20260504192004 76 203 7.0 14.0 0.00 0.00 0.00 33 996.4
20260504191528 76 203 7.0 14.0 0.00 0.00 0.00 33 996.4
20260504191004 76 210 7.0 15.0 0.00 0.00 0.00 33 996.5
20260504190504 76 216 7.0 15.0 0.00 0.00 0.00 31 996.5
20260504190011 76 206 6.0 14.0 0.00 0.00 0.00 34 996.4
20260504185504 76 199 6.0 14.0 0.00 0.00 0.00 32 996.5
20260504185004 76 209 6.0 13.0 0.00 0.00 0.00 32 996.5
20260504184504 76 224 7.0 15.0 0.00 0.00 0.00 32 996.6
20260504184004 76 227 6.0 15.0 0.00 0.00 0.00 32 996.6
20260504183504 76 222 5.0 13.0 0.00 0.00 0.00 31 996.5
20260504183004 76 229 6.0 16.0 0.00 0.00 0.00 32 996.6
20260504182525 76 218 7.0 20.0 0.00 0.00 0.00 32 996.7
20260504182004 77 216 7.0 21.0 0.00 0.00 0.00 30 996.6
20260504181525 77 232 7.0 21.0 0.00 0.00 0.00 31 996.7
20260504181005 77 225 7.0 19.0 0.00 0.00 0.00 32 996.7
20260504180505 76 215 8.0 21.0 0.00 0.00 0.00 32 996.7
20260504180028 76 210 8.0 21.0 0.00 0.00 0.00 32 996.7
20260504175507 76 204 7.0 20.0 0.00 0.00 0.00 31 996.7
20260504175004 76 209 7.0 16.0 0.00 0.00 0.00 32 996.6
20260504174504 76 203 8.0 16.0 0.00 0.00 0.00 32 996.7
20260504174026 75 200 8.0 16.0 0.00 0.00 0.00 32 996.6
20260504173504 75 204 8.0 15.0 0.00 0.00 0.00 31 996.7
20260504173025 75 202 8.0 19.0 0.00 0.00 0.00 31 996.9
20260504172504 75 199 8.0 19.0 0.00 0.00 0.00 31 996.8
20260504172004 74 197 9.0 21.0 0.00 0.00 0.00 31 997.0
20260504171504 74 198 8.0 21.0 0.00 0.00 0.00 30 997.0
20260504171004 74 199 8.0 16.0 0.00 0.00 0.00 33 997.1
20260504170504 74 199 9.0 18.0 0.00 0.00 0.00 31 997.2
20260504151004 69 195 7.0 14.0 0.00 0.00 0.00 38 998.8
20260504150504 68 194 8.0 16.0 0.00 0.00 0.00 40 998.9
20260504141025 63 191 6.0 11.0 0.00 0.00 0.00 46 999.6
20260504140504 63 191 6.0 11.0 0.00 0.00 0.00 48 999.7
20260504130507 55 187 5.0 9.0 0.00 0.00 0.00 62 1000.7
20260504110505 45 0 0.0 0.0 0.00 0.00 0.00 80 1000.8